Location: Barrio de Canyet
(41.4665°N, 2.2381°E)
Time: 18:47:25
(UTC+00:00)

H-2A R/B - Pass Details

Date: 09 April 2020
Orbit: 734 x 836 km, 98.2° (Epoch: 30 May)

Event Time Altitude Azimuth Distance (km) Brightness Sun altitude
Rises 19:54:56 0° 183° (S) 3,295 5.0 -16.6°
Reaches altitude 10° 19:57:24 10° 190° (S) 2,353 4.3 -17.0°
Maximum altitude 20:02:19 43° 261° (W) 1,082 3.1 -17.8°
Drops below altitude 10° 20:07:09 10° 333° (NNW) 2,306 5.3 -18.6°
Sets 20:09:33 0° 340° (NNW) 3,222 6.0 -19.0°
